Total_Precipitation_Accumulation
0.02 0.01 0.02 0.02 0.03 0.02 0.01 0.02 0.02 0.01 0.00 0.00 0.00 0.00 0.00 0.00 0.00 0.00 0.00 0.00 0.00 0.00 0.00 0.00 0.00 0.00 0.00 0.00 0.00 0.00 0.00 0.00 0.00 0.01 0.00 0.01 0.08 0.12 0.28 0.17 0.23 0.18 0.07 0.16 0.65
0.07 0.03 0.01 0.02 0.01 0.00 0.01 0.02 0.01 0.00 0.01 0.01 0.01 0.00 0.00 0.00 0.00 0.00 0.01 0.01 0.00 0.00 0.00 0.00 0.00 0.00 0.00 0.00 0.00 0.00 0.00 0.01 0.00 0.01 0.00 0.01 0.03 0.05 0.17 0.10 0.13 0.20 0.04 0.07 0.09
0.08 0.03 0.02 0.01 0.01 0.01 0.01 0.01 0.00 0.00 0.01 0.01 0.01 0.00 0.00 0.00 0.00 0.00 0.00 0.02 0.01 0.01 0.01 0.00 0.00 0.00 0.00 0.01 0.00 0.00 0.00 0.02 0.01 0.01 0.01 0.01 0.02 0.03 0.11 0.18 0.22 0.18 0.05 0.11 0.15
0.07 0.07 0.06 0.03 0.01 0.01 0.01 0.00 0.00 0.00 0.01 0.01 0.02 0.01 0.00 0.00 0.00 0.00 0.00 0.01 0.02 0.00 0.01 0.01 0.01 0.01 0.00 0.00 0.02 0.01 0.01 0.02 0.01 0.02 0.01 0.01 0.01 0.02 0.15 0.30 0.24 0.32 0.11 0.10 0.07
0.08 0.06 0.06 0.06 0.04 0.02 0.00 0.00 0.00 0.00 0.00 0.01 0.01 0.02 0.01 0.00 0.00 0.00 0.00 0.00 0.01 0.00 0.01 0.01 0.02 0.02 0.02 0.01 0.01 0.02 0.04 0.04 0.01 0.02 0.03 0.00 0.00 0.00 0.03 0.10 0.14 0.25 0.17 0.25 0.23
0.02 0.02 0.02 0.02 0.01 0.00 0.00 0.00 0.00 0.00 0.00 0.01 0.01 0.01 0.00 0.00 0.00 0.00 0.00 0.00 0.00 0.01 0.01 0.01 0.02 0.03 0.02 0.02 0.02 0.01 0.02 0.02 0.01 0.02 0.03 0.01 0.00 0.00 0.00 0.04 0.07 0.17 0.16 0.12 0.09
0.02 0.02 0.02 0.01 0.00 0.00 0.00 0.00 0.00 0.00 0.01 0.01 0.01 0.01 0.00 0.00 0.00 0.00 0.00 0.00 0.00 0.00 0.01 0.00 0.01 0.04 0.04 0.03 0.01 0.02 0.02 0.02 0.02 0.02 0.05 0.05 0.01 0.00 0.00 0.00 0.03 0.07 0.11 0.09 0.15
0.02 0.02 0.01 0.00 0.00 0.00 0.00 0.00 0.00 0.00 0.00 0.01 0.01 0.00 0.00 0.00 0.00 0.00 0.00 0.00 0.00 0.00 0.00 0.01 0.01 0.02 0.04 0.03 0.03 0.04 0.03 0.03 0.02 0.01 0.02 0.06 0.03 0.02 0.01 0.01 0.02 0.04 0.05 0.08 0.12
0.02 0.01 0.00 0.00 0.00 0.00 0.00 0.00 0.00 0.00 0.00 0.00 0.00 0.00 0.00 0.00 0.00 0.00 0.00 0.00 0.00 0.00 0.00 0.00 0.00 0.01 0.01 0.02 0.03 0.02 0.03 0.05 0.02 0.01 0.03 0.06 0.04 0.02 0.03 0.03 0.05 0.07 0.05 0.05 0.11
0.02 0.01 0.01 0.01 0.01 0.01 0.00 0.00 0.00 0.00 0.00 0.00 0.00 0.00 0.00 0.00 0.00 0.00 0.00 0.00 0.00 0.00 0.00 0.00 0.00 0.01 0.00 0.00 0.02 0.02 0.03 0.04 0.03 0.03 0.04 0.05 0.09 0.10 0.08 0.05 0.06 0.07 0.08 0.04 0.03
0.02 0.02 0.02 0.01 0.01 0.01 0.00 0.00 0.00 0.00 0.00 0.00 0.00 0.00 0.00 0.00 0.00 0.00 0.00 0.00 0.00 0.00 0.01 0.00 0.00 0.02 0.04 0.02 0.02 0.02 0.03 0.03 0.04 0.02 0.05 0.08 0.08 0.10 0.10 0.06 0.02 0.02 0.03 0.03 0.00
0.01 0.02 0.01 0.01 0.01 0.01 0.00 0.00 0.00 0.00 0.00 0.00 0.00 0.00 0.00 0.00 0.00 0.00 0.01 0.01 0.00 0.01 0.02 0.02 0.00 0.01 0.01 0.02 0.02 0.02 0.03 0.06 0.06 0.01 0.02 0.03 0.05 0.05 0.02 0.03 0.03 0.02 0.02 0.04 0.03
0.02 0.01 0.01 0.01 0.00 0.00 0.01 0.02 0.01 0.01 0.01 0.01 0.01 0.00 0.00 0.03 0.01 0.00 0.04 0.04 0.04 0.04 0.08 0.05 0.03 0.04 0.05 0.07 0.07 0.03 0.05 0.06 0.06 0.07 0.03 0.01 0.00 0.00 0.00 0.00 0.00 0.01 0.01 0.04 0.11
0.01 0.01 0.01 0.01 0.00 0.02 0.06 0.02 0.02 0.01 0.09 0.04 0.03 0.02 0.04 0.12 0.01 0.00 0.04 0.07 0.07 0.07 0.13 0.10 0.07 0.07 0.10 0.10 0.16 0.10 0.07 0.13 0.13 0.23 0.14 0.02 0.03 0.00 0.00 0.00 0.00 0.01 0.01 0.05 0.08
0.01 0.01 0.02 0.01 0.02 0.10 0.04 0.00 0.01 0.04 0.25 0.03 0.02 0.02 0.03 0.13 0.05 0.01 0.04 0.04 0.08 0.12 0.14 0.17 0.11 0.16 0.12 0.08 0.12 0.11 0.13 0.21 0.26 0.25 0.22 0.14 0.11 0.00 0.00 0.01 0.01 0.00 0.01 0.02 0.06
0.02 0.02 0.04 0.01 0.08 0.03 0.00 0.00 0.04 0.20 0.14 0.03 0.02 0.03 0.04 0.13 0.06 0.02 0.03 0.05 0.08 0.09 0.20 0.18 0.16 0.22 0.12 0.12 0.11 0.24 0.22 0.41 0.37 0.32 0.19 0.27 0.18 0.06 0.10 0.32 0.14 0.05 0.03 0.04 0.06
0.05 0.05 0.06 0.01 0.03 0.00 0.00 0.01 0.09 0.10 0.02 0.02 0.02 0.04 0.05 0.10 0.04 0.00 0.01 0.05 0.12 0.24 0.31 0.18 0.14 0.16 0.16 0.18 0.14 0.24 0.40 0.84 0.72 0.52 0.22 0.31 0.31 0.27 0.22 0.57 0.42 0.27 0.17 0.21 0.16
0.08 0.10 0.05 0.01 0.00 0.01 0.01 0.01 0.05 0.03 0.01 0.01 0.01 0.01 0.02 0.03 0.01 0.01 0.01 0.06 0.04 0.16 0.29 0.18 0.16 0.09 0.12 0.16 0.15 0.16 0.36 1.04 1.24 0.61 0.73 0.76 0.73 0.59 0.34 0.27 0.47 0.52 0.45 0.42 0.43
0.18 0.09 0.05 0.01 0.03 0.13 0.15 0.04 0.01 0.00 0.00 0.02 0.05 0.02 0.04 0.01 0.01 0.01 0.02 0.02 0.02 0.06 0.17 0.26 0.31 0.02 0.06 0.06 0.08 0.14 0.23 0.50 0.89 0.74 0.82 0.74 0.59 0.45 0.41 0.08 0.39 0.53 0.71 0.60 0.57
0.30 0.18 0.05 0.00 0.11 0.32 0.27 0.13 0.00 0.00 0.00 0.01 0.08 0.06 0.11 0.01 0.01 0.01 0.01 0.02 0.02 0.00 0.01 0.09 0.20 0.02 0.10 0.02 0.02 0.06 0.10 0.28 0.91 1.24 0.65 0.16 0.05 0.13 0.44 0.34 0.41 0.33 0.51 0.82 0.73
0.62 0.51 0.12 0.02 0.22 0.47 0.39 0.14 0.01 0.00 0.00 0.00 0.00 0.00 0.01 0.01 0.01 0.01 0.02 0.01 0.00 0.01 0.01 0.02 0.07 0.05 0.12 0.04 0.04 0.03 0.06 0.14 0.41 0.54 0.68 0.37 0.09 0.07 0.20 0.30 0.18 0.19 0.40 0.65 0.68
0.79 0.68 0.16 0.18 0.66 0.55 0.34 0.09 0.01 0.00 0.00 0.00 0.01 0.01 0.01 0.01 0.02 0.01 0.01 0.01 0.00 0.00 0.01 0.05 0.13 0.10 0.09 0.02 0.04 0.06 0.13 0.30 0.95 0.92 0.71 0.69 0.40 0.09 0.09 0.12 0.16 0.16 0.12 0.20 0.41
1.12 0.63 0.25 0.31 0.86 0.75 0.31 0.11 0.06 0.02 0.01 0.03 0.03 0.02 0.01 0.04 0.10 0.04 0.03 0.01 0.00 0.00 0.04 0.11 0.23 0.29 0.10 0.08 0.16 0.24 0.21 0.26 0.62 0.98 0.78 0.82 0.37 0.16 0.16 0.10 0.10 0.07 0.07 0.07 0.10
1.78 1.28 0.71 0.64 0.55 0.39 0.35 0.27 0.15 0.06 0.05 0.05 0.08 0.06 0.10 0.12 0.13 0.28 0.09 0.06 0.02 0.01 0.06 0.21 0.31 0.42 0.49 0.41 0.48 0.46 0.49 0.41 0.39 0.78 0.62 0.39 0.21 0.33 0.49 0.20 0.09 0.07 0.08 0.12 0.09
2.37 1.71 0.83 0.91 0.55 0.40 0.53 0.63 0.41 0.25 0.21 0.20 0.29 0.15 0.26 0.47 0.18 0.15 0.10 0.09 0.04 0.02 0.07 0.22 0.34 0.17 0.19 0.15 0.26 0.23 0.15 0.29 0.42 0.36 0.48 0.32 0.29 0.33 0.30 0.25 0.15 0.11 0.11 0.14 0.23
3.03 1.73 1.15 1.11 0.88 0.93 1.07 0.79 0.38 0.25 0.30 0.19 0.29 0.14 0.16 0.26 0.19 0.16 0.13 0.21 0.24 0.06 0.11 0.24 0.46 0.28 0.22 0.08 0.12 0.14 0.08 0.06 0.14 0.21 0.18 0.11 0.15 0.26 0.17 0.07 0.09 0.11 0.11 0.13 0.17
2.59 1.31 1.36 1.26 0.55 0.62 0.53 0.35 0.19 0.16 0.18 0.11 0.10 0.15 0.15 0.11 0.06 0.07 0.08 0.14 0.20 0.12 0.18 0.26 0.42 0.57 0.48 0.13 0.20 0.25 0.05 0.04 0.04 0.06 0.12 0.20 0.24 0.17 0.22 0.10 0.06 0.07 0.09 0.14 0.13